Akron Canton, OH

8:37 PM EDT on May 24, 2018 (GMT -0400)
Akron-Canton Regional

Weather History for KCAK - May, 2013

Change the Weather History Date:

Saturday, May 18, 2013

  Actual Average Record
Temperature  
Mean Temperature 69 °F 59 °F  
Max Temperature 83 °F 70 °F 92 °F (1962)
Min Temperature 54 °F 49 °F 34 °F (1941)
Degree Days  
Heating Degree Days 0 7  
Month to date heating degree days 77 157  
Since 1 July heating degree days 5722 6033  
Cooling Degree Days 4 1  
Month to date cooling degree days 20 12  
Year to date cooling degree days 27 18  
Growing Degree Days 18 (Base 50)    
Moisture  
Dew Point 50 °F    
Average Humidity 52    
Maximum Humidity 71    
Minimum Humidity 33    
Precipitation  
Precipitation 0.00 in 0.14 in 0.98 in (2011)
Month to date precipitation 0.76 2.42  
Year to date precipitation 11.50 13.87  
Snow  
Snow 0.00 in 0.00 in - ()
Month to date snowfall 0.0 0.1  
Since 1 July snowfall 47.2 47.5  
Snow Depth 0.00 in    
Sea Level Pressure  
Sea Level Pressure 30.08 in    
Wind  
Wind Speed 7 mph (ESE)    
Max Wind Speed 13 mph    
Max Gust Speed 17 mph    
Visibility 9 miles    
Events      
T = Trace of Precipitation, MM = Missing Value Source: NWS Daily Summary

Daily Weather History Graph

Daily Weather History Graph

Search for Another Location

Airport or City:

Astronomy

May. 18, 2013 Rise Set
Actual Time 6:05 AM EDT 8:39 PM EDT
Civil Twilight 5:33 AM EDT 9:11 PM EDT
Nautical Twilight 4:54 AM EDT 9:50 PM EDT
Astronomical Twilight 4:10 AM EDT 10:35 PM EDT
Moon 1:38 PM EDT (5/18) 2:00 AM EDT (5/18)
Length of Visible Light 15h 37m
Length of Day
14h 34m
First Quarter, 55% of the Moon is Illuminated
May 18
First Quarter
May 25
Full
May 31
Last Quarter
Jun 8
New
Jun 16
First Quarter

Hourly Weather History & Observations

Time (EDT) Temp. Heat Index Dew Point Humidity Pressure Visibility Wind Dir Wind Speed Gust Speed Precip Events Conditions
12:51 AM 59.0 °F - 42.1 °F 53% 30.12 in 10.0 mi ENE 9.2 mph - N/A   Partly Cloudy
1:51 AM 59.0 °F - 43.0 °F 55% 30.11 in 10.0 mi East 10.4 mph - N/A   Scattered Clouds
2:51 AM 57.0 °F - 44.1 °F 62% 30.09 in 10.0 mi ENE 8.1 mph - N/A   Partly Cloudy
3:51 AM 55.9 °F - 44.1 °F 64% 30.09 in 10.0 mi East 8.1 mph - N/A   Partly Cloudy
4:51 AM 55.9 °F - 44.1 °F 64% 30.09 in 10.0 mi East 8.1 mph - N/A   Partly Cloudy
5:51 AM 55.0 °F - 44.1 °F 67% 30.10 in 10.0 mi East 6.9 mph - N/A   Partly Cloudy
6:51 AM 54.0 °F - 45.0 °F 72% 30.12 in 9.0 mi East 5.8 mph - N/A   Scattered Clouds
7:51 AM 57.0 °F - 46.0 °F 67% 30.12 in 10.0 mi East 8.1 mph - N/A   Mostly Cloudy
8:51 AM 64.0 °F - 50.0 °F 60% 30.14 in 10.0 mi ESE 8.1 mph - N/A   Mostly Cloudy
9:51 AM 70.0 °F - 54.0 °F 57% 30.12 in 10.0 mi East 6.9 mph - N/A   Mostly Cloudy
10:51 AM 73.9 °F - 54.0 °F 50% 30.11 in 10.0 mi ESE 6.9 mph - N/A   Mostly Cloudy
11:51 AM 77.0 °F - 52.0 °F 42% 30.09 in 10.0 mi SE 8.1 mph - N/A   Mostly Cloudy
12:51 PM 79.0 °F - 48.9 °F 35% 30.09 in 10.0 mi ESE 5.8 mph - N/A   Mostly Cloudy
1:51 PM 81.0 °F - 51.1 °F 35% 30.08 in 10.0 mi East 9.2 mph - N/A   Mostly Cloudy
2:51 PM 81.0 °F - 48.0 °F 31% 30.06 in 10.0 mi Variable 3.5 mph - N/A   Scattered Clouds
3:51 PM 80.1 °F - 52.0 °F 38% 30.04 in 10.0 mi ESE 5.8 mph - N/A   Scattered Clouds
4:51 PM 81.0 °F 80.4 °F 53.1 °F 38% 30.02 in 8.0 mi ESE 5.8 mph - N/A   Scattered Clouds
5:51 PM 79.0 °F - 52.0 °F 39% 30.02 in 8.0 mi SE 8.1 mph - N/A   Scattered Clouds
6:51 PM 78.1 °F - 53.1 °F 42% 30.02 in 8.0 mi SE 6.9 mph - N/A   Mostly Cloudy
7:51 PM 78.1 °F - 55.0 °F 45% 30.03 in 8.0 mi SSE 9.2 mph - N/A   Mostly Cloudy
8:51 PM 75.9 °F - 55.0 °F 48% 30.03 in 9.0 mi SSE 4.6 mph - N/A   Overcast
9:51 PM 75.0 °F - 55.9 °F 51% 30.04 in 8.0 mi ESE 3.5 mph - N/A   Overcast
10:51 PM 68.0 °F - 55.0 °F 63% 30.04 in 10.0 mi NE 6.9 mph - N/A   Mostly Cloudy
11:51 PM 68.0 °F - 54.0 °F 61% 30.03 in 9.0 mi East 8.1 mph - N/A   Partly Cloudy